Theta_e
301 300 299 298 298 297 296 296 296 297 296 297 297 296 296 296 296 296 296 296 296 298 299 299 299 299 299 299 300 303 304 304 303 302 301 301 300 300 300 300 301 300 300 302 304 304 304 302 303 306 307 307 308 308 310 311 312 315 316 318 320 321 321 320 319 318 322 324 323 325 326 327 329 328 328 327 327 327 326 326 327 327 327 329 332 331 330 331
299 298 297 296 296 296 296 296 296 296 296 297 296 296 297 296 296 296 296 296 297 298 298 299 299 299 301 300 300 302 305 304 302 302 301 300 301 300 300 300 300 301 300 303 304 305 305 304 305 307 307 308 308 308 309 310 310 312 314 315 316 317 318 317 318 319 320 320 320 322 323 324 327 326 327 326 326 327 326 325 325 325 327 330 331 330 329 330
297 296 296 295 296 296 296 296 296 297 296 297 297 297 297 296 296 296 296 296 297 299 298 299 299 300 302 302 301 300 305 307 302 302 302 300 301 301 301 300 299 300 301 304 305 305 305 306 306 306 308 309 309 308 307 308 310 311 311 312 313 314 314 314 318 319 317 317 319 320 320 322 323 323 325 326 326 326 325 325 326 326 327 330 331 330 330 330
297 296 295 295 296 296 296 296 296 297 297 297 297 297 297 296 296 296 296 297 298 299 299 299 299 300 302 304 304 302 306 309 303 301 301 301 301 302 301 300 299 299 303 305 305 305 305 305 305 305 308 309 307 307 307 307 310 310 309 310 311 312 312 313 316 316 314 315 317 317 318 320 318 319 324 326 327 325 324 326 327 327 327 331 333 333 330 330
298 296 295 296 296 295 296 296 296 297 297 297 297 297 297 296 296 296 296 297 298 299 298 299 299 301 301 302 304 305 307 306 302 301 301 301 301 302 302 302 300 299 303 306 305 305 305 305 305 305 306 306 306 306 307 308 308 309 309 309 310 310 310 311 313 312 311 312 313 314 316 316 315 317 321 323 326 326 325 327 328 328 329 332 335 333 330 330
296 295 295 295 295 295 296 296 296 297 297 297 297 297 297 297 296 296 296 297 298 298 299 299 300 302 303 302 301 303 305 303 301 301 301 301 302 302 302 303 302 300 303 306 305 305 306 306 306 306 306 305 306 307 308 308 307 307 308 308 309 309 309 309 310 309 309 310 311 312 312 312 312 314 317 320 323 326 326 327 327 328 328 332 334 333 330 330
295 295 296 295 295 295 295 296 296 296 297 297 297 297 297 297 296 296 297 298 298 298 299 299 301 304 305 307 303 300 302 301 300 300 301 302 302 302 303 304 302 301 304 305 305 305 307 307 305 305 306 306 306 306 306 306 306 306 305 306 307 308 308 308 309 309 310 311 310 311 310 311 311 312 314 316 319 322 324 325 325 327 327 329 332 334 333 333
295 296 295 295 295 295 295 296 296 296 297 297 297 297 297 296 296 296 297 298 298 298 299 299 302 304 304 307 305 300 300 301 300 301 301 302 302 302 303 304 302 301 304 305 305 306 307 306 305 305 305 304 304 304 304 305 305 305 305 306 307 308 309 309 310 310 311 311 311 311 310 311 311 311 311 312 314 317 320 321 323 325 326 327 330 332 334 335
295 296 295 295 295 295 295 295 296 296 297 297 297 297 297 296 296 297 298 298 298 299 299 299 300 302 303 304 303 301 300 300 300 301 301 301 302 302 303 304 302 302 304 305 306 307 306 306 307 306 305 305 304 305 306 306 306 306 306 307 307 307 308 308 309 309 309 310 310 311 310 310 311 310 310 311 313 315 317 318 320 322 324 326 327 329 330 332
295 296 295 295 295 295 295 295 296 296 297 297 297 297 297 297 297 297 298 298 298 299 299 300 300 299 301 301 302 301 300 299 301 301 300 301 302 301 303 305 304 302 303 305 307 306 306 307 307 306 307 307 305 305 306 306 306 306 307 307 307 307 307 307 307 307 307 308 309 310 310 310 310 310 310 311 313 315 316 317 318 320 322 323 324 326 327 328
296 295 295 295 295 295 295 295 296 297 297 297 297 297 297 297 297 298 298 298 299 299 299 301 301 301 300 299 301 301 299 299 301 300 300 301 301 302 304 305 305 304 303 304 306 306 306 306 305 305 307 307 305 305 305 305 306 306 306 306 306 306 305 306 306 306 307 308 308 309 310 311 311 310 309 309 310 312 313 315 317 319 320 321 322 325 326 326
296 295 295 295 295 295 295 295 296 297 297 297 297 297 297 297 298 298 298 298 299 299 300 301 301 302 302 300 300 300 299 299 300 300 299 301 301 303 305 305 306 305 303 304 306 306 305 305 306 306 307 306 306 306 305 306 305 305 305 304 304 303 303 304 304 305 306 308 309 309 311 311 311 310 309 309 308 308 309 310 313 316 320 322 324 326 326 326
296 296 295 295 295 295 295 295 296 297 297 297 297 298 298 298 298 298 298 299 299 299 301 302 302 303 302 301 300 299 299 299 299 299 299 300 301 303 304 304 306 306 304 303 304 304 304 304 305 305 306 306 306 306 306 306 306 306 305 303 303 303 303 304 305 306 306 308 309 310 311 311 311 310 310 310 309 308 307 307 310 314 318 321 323 324 325 326
296 296 295 295 295 295 295 295 296 297 297 298 298 298 298 298 299 298 299 299 299 299 301 302 304 304 303 301 300 299 299 299 299 298 298 300 301 302 303 304 306 306 304 303 304 304 304 304 305 306 307 307 307 306 306 306 306 306 306 305 305 304 304 305 305 306 307 309 310 310 311 311 311 311 311 310 309 308 307 307 309 312 316 318 320 321 323 325
296 296 295 295 295 295 295 295 296 297 297 298 298 298 298 298 299 298 299 299 299 299 301 302 303 305 303 301 301 299 299 299 299 298 298 299 301 302 304 305 306 306 305 305 305 306 305 305 307 307 307 306 307 307 306 306 305 305 306 305 305 305 305 305 305 306 306 308 310 310 310 310 310 311 311 311 310 309 308 307 308 309 313 315 316 317 319 321
297 296 296 295 295 295 295 295 296 297 297 298 298 298 299 299 299 299 299 299 300 299 301 302 302 305 303 300 300 299 299 300 299 299 298 299 301 303 304 306 307 306 307 306 306 307 307 306 307 307 307 307 306 306 306 305 306 306 305 305 305 305 304 304 305 305 307 309 310 311 311 311 311 311 311 311 311 310 308 308 308 308 310 311 311 312 314 316
297 296 296 296 295 295 295 295 296 297 297 298 298 298 299 299 299 300 300 300 301 300 300 301 302 305 303 299 299 299 299 300 300 299 298 299 302 304 305 306 307 307 308 307 306 308 307 306 307 307 306 306 305 305 306 306 305 305 305 305 305 304 304 304 304 305 306 308 308 309 310 310 311 311 311 311 311 311 310 309 310 311 312 312 312 311 312 314
296 296 296 296 295 295 295 295 296 297 297 298 299 299 299 300 299 300 301 301 302 302 301 301 302 304 301 299 300 300 300 301 302 300 298 299 302 304 306 306 306 307 308 307 306 307 307 305 305 305 305 305 304 305 305 306 305 305 305 305 305 305 304 304 304 304 304 304 306 307 308 310 310 310 311 311 311 311 311 311 311 312 312 312 313 313 312 313
296 296 296 295 295 295 295 295 296 297 297 298 298 298 300 302 301 299 299 300 301 302 301 301 302 302 301 300 299 299 300 301 303 300 298 300 302 304 305 305 306 307 307 307 306 306 306 305 304 305 305 304 304 304 305 305 305 305 305 305 305 305 305 304 304 304 304 304 304 304 306 308 310 310 310 311 312 312 312 312 312 312 311 311 314 313 312 312
296 296 296 295 295 295 295 295 296 297 297 298 298 298 301 306 305 301 299 299 300 301 301 301 302 302 301 300 299 299 300 300 301 300 298 300 302 304 304 304 306 307 306 307 307 306 306 305 304 305 305 304 304 304 304 304 304 305 305 305 305 305 305 304 304 305 306 306 304 303 305 308 309 310 310 311 312 312 312 312 312 312 311 312 315 315 314 314
295 296 295 295 295 295 295 295 296 297 297 298 298 298 301 305 305 303 301 300 299 300 300 300 301 300 300 300 299 300 302 301 300 299 298 299 302 304 304 304 305 305 306 306 306 307 306 304 304 305 304 304 304 305 304 304 304 304 304 305 305 305 305 304 305 306 307 308 307 305 306 308 309 309 309 311 312 312 312 313 313 313 313 313 314 315 315 316
295 295 295 295 295 295 295 296 296 296 297 298 298 298 299 301 302 303 303 301 299 300 301 300 300 298 298 300 299 301 304 301 300 299 298 300 302 304 305 304 304 304 305 306 306 306 304 303 303 303 304 305 305 305 305 304 304 304 305 305 305 305 305 305 307 308 307 307 308 308 308 308 308 309 310 311 312 313 313 311 311 312 312 311 311 311 311 312
295 295 295 295 295 295 295 295 296 296 297 298 298 298 298 300 300 301 303 303 301 300 300 300 300 298 298 299 298 301 303 301 300 300 299 300 302 304 305 304 303 304 304 305 306 305 302 302 303 302 303 305 305 305 305 305 305 306 306 306 306 306 306 306 307 308 306 306 307 308 309 309 309 310 309 310 310 310 309 308 309 310 309 309 309 308 308 308
295 295 295 295 295 296 295 295 296 296 297 298 298 299 299 299 299 301 302 303 302 301 300 301 301 299 298 299 299 302 304 301 300 300 300 301 301 303 305 304 303 304 303 303 306 304 301 302 302 302 303 304 305 305 304 304 305 306 306 307 306 306 306 306 306 306 306 306 307 307 308 308 308 308 306 306 306 306 306 306 306 307 307 307 307 306 306 306
294 294 294 295 295 296 297 296 296 296 297 297 298 299 299 299 298 299 302 303 301 300 301 302 301 299 298 299 299 301 303 301 300 300 301 300 301 304 305 303 302 303 303 303 305 304 302 302 303 302 303 304 305 305 305 305 305 306 306 306 306 306 306 306 306 306 307 308 308 308 310 308 306 305 304 303 304 304 304 305 305 305 306 306 306 305 305 305
294 294 294 294 295 297 298 296 295 297 298 297 297 298 298 299 299 298 303 307 302 300 301 301 301 299 299 300 299 300 302 301 300 300 301 300 300 303 304 301 302 303 303 303 304 304 302 303 303 303 304 304 304 304 304 304 305 307 306 306 307 306 307 307 307 307 308 309 309 308 309 307 304 304 303 303 303 302 303 303 304 304 304 305 305 305 305 305
294 294 294 294 295 296 297 296 295 297 298 297 297 298 298 299 299 299 305 308 302 299 300 301 301 299 299 300 300 300 300 300 300 300 301 300 299 302 303 301 301 303 303 304 304 304 304 303 303 304 304 303 303 302 302 304 305 307 307 307 307 307 307 307 307 308 307 308 309 309 307 305 303 303 302 303 302 302 302 302 303 303 304 304 304 304 304 304
294 294 294 294 295 295 295 295 295 295 296 296 296 297 298 299 299 301 307 305 299 299 300 300 301 299 299 300 300 300 300 299 300 300 301 301 298 300 303 301 300 301 301 304 305 304 304 303 303 305 304 303 303 302 302 303 305 306 306 307 307 307 307 307 308 308 308 308 309 309 307 304 303 302 301 302 302 302 302 301 302 302 303 303 303 303 303 303
294 294 294 294 295 295 295 295 295 295 295 296 296 297 298 298 299 303 307 302 298 299 300 300 301 299 298 300 300 300 301 300 300 300 300 301 297 298 302 301 298 300 302 304 305 303 302 303 304 304 303 303 303 302 302 304 305 306 306 306 307 308 307 308 308 307 309 309 307 308 307 304 302 301 301 302 301 302 301 301 301 302 302 302 303 303 303 302
294 294 294 295 295 295 297 297 295 295 295 296 296 296 298 299 302 306 305 300 298 299 299 300 301 300 299 300 300 299 300 300 299 300 300 300 298 297 300 299 296 300 303 303 303 302 302 303 303 303 303 302 302 302 302 305 306 306 307 307 308 309 309 309 308 306 308 307 304 305 305 304 303 301 300 301 301 301 301 300 301 301 302 302 302 302 302 301
294 294 294 295 295 295 298 298 295 295 296 296 296 296 300 304 307 306 301 298 299 299 299 300 300 299 299 299 299 298 300 300 299 300 300 300 298 296 297 297 296 299 301 300 301 301 302 303 301 301 303 301 301 302 302 304 306 306 307 307 307 308 309 310 308 307 308 308 305 303 303 303 303 301 300 301 300 300 300 300 300 301 301 302 301 302 301 301
294 295 294 295 295 294 296 296 295 295 296 296 296 298 304 308 307 303 300 299 300 299 299 300 300 299 299 299 299 298 300 300 299 300 301 300 299 297 296 296 295 298 300 299 299 299 300 302 300 301 302 301 301 301 301 303 304 304 305 306 306 307 308 310 310 308 308 307 305 304 304 302 301 300 300 300 300 300 300 300 300 301 301 301 301 301 300 300
294 295 294 294 294 294 295 295 295 296 296 296 298 300 306 308 304 300 299 300 299 298 299 300 299 299 299 299 298 298 300 300 299 300 300 299 299 298 297 296 295 296 298 298 298 298 299 301 301 300 300 300 301 301 301 302 303 303 303 305 306 306 306 308 309 309 309 307 304 304 305 303 301 300 299 299 299 299 300 300 300 301 301 301 300 300 299 299
294 295 294 294 294 294 295 295 295 296 296 298 301 304 307 306 302 299 298 298 298 298 299 299 298 299 299 298 298 298 299 300 299 299 300 299 299 298 298 297 296 295 295 296 298 298 297 299 300 300 300 301 301 301 301 302 302 302 301 302 305 305 306 308 308 309 310 309 307 307 306 304 302 301 299 299 299 299 299 300 300 300 300 300 299 299 298 298
295 295 295 295 295 295 295 295 296 296 297 300 304 306 306 302 299 300 300 299 299 299 299 299 298 299 299 298 299 299 299 300 300 299 299 299 298 298 297 297 296 294 294 295 296 297 296 297 300 299 300 300 301 301 301 302 302 302 301 301 302 303 305 307 308 308 309 309 308 306 304 303 301 300 300 299 299 298 299 299 299 299 299 299 299 298 298 298
295 296 296 295 295 295 296 295 296 297 299 303 306 305 302 299 299 301 302 300 300 299 299 299 298 299 299 298 300 299 299 299 299 299 299 298 298 298 297 296 295 294 294 293 295 297 296 297 298 299 299 299 300 300 301 302 301 301 303 301 299 301 305 307 307 307 308 309 308 306 304 302 301 301 300 299 299 298 298 298 298 298 299 298 298 298 297 297
295 296 296 295 295 295 296 295 296 299 302 304 306 303 298 296 297 299 300 300 299 298 299 300 299 298 298 299 299 299 299 299 299 299 299 298 299 298 296 296 295 294 293 293 294 296 296 297 298 299 300 299 299 300 301 301 299 300 302 300 300 304 306 306 305 305 306 305 306 308 306 304 305 303 300 299 299 298 298 297 297 298 298 298 298 297 297 296
295 297 297 295 295 296 296 296 297 300 302 303 303 299 295 296 297 298 299 299 299 299 299 299 298 297 297 298 299 298 298 299 298 299 299 298 299 298 296 296 295 293 293 292 294 296 297 298 299 300 300 298 299 301 303 301 298 299 300 299 300 303 303 303 302 304 304 301 302 306 306 305 306 303 300 298 298 297 297 297 297 297 298 298 298 298 297 296
296 299 299 295 295 296 296 297 298 300 303 304 303 300 296 296 297 297 299 299 299 299 299 298 297 297 297 297 298 298 298 298 297 298 298 298 299 298 296 295 294 293 292 293 294 295 297 298 300 300 299 299 300 301 302 300 297 298 299 298 299 299 299 301 302 302 301 298 299 302 303 303 304 302 300 298 297 297 297 297 296 296 297 297 298 298 298 296
297 301 300 295 295 296 296 298 299 300 302 302 301 298 295 296 297 297 298 298 298 299 299 299 297 298 297 296 297 297 296 297 297 297 298 298 297 297 296 294 293 292 292 293 294 296 297 298 299 299 299 300 300 300 300 299 297 298 298 297 297 297 298 300 301 300 298 297 298 299 300 301 301 300 299 298 297 297 296 297 296 296 296 296 296 297 297 297
298 302 300 296 296 297 297 299 300 300 300 298 297 295 294 296 298 298 297 297 298 298 298 298 298 298 296 296 297 297 295 296 297 297 297 296 296 297 296 294 292 291 292 294 295 296 296 297 297 298 298 299 299 299 299 298 298 299 298 297 297 297 298 299 299 299 298 298 299 298 298 301 300 300 299 297 297 297 296 296 296 295 295 295 295 295 296 297
300 301 299 296 297 297 299 300 300 299 299 298 296 296 296 297 297 297 296 296 296 297 296 297 298 297 296 296 297 296 295 296 296 297 297 296 296 297 295 293 292 292 293 295 296 296 296 296 297 297 298 299 299 299 298 297 298 300 298 297 297 296 297 297 297 298 298 298 300 299 300 302 300 299 299 297 297 296 295 295 295 295 294 294 294 294 295 296
298 298 297 296 296 297 301 303 300 297 295 294 294 296 296 296 295 295 295 295 295 296 296 297 297 297 297 296 296 295 295 296 296 297 297 296 296 297 295 292 292 292 294 295 296 295 295 296 297 297 298 299 299 299 298 297 297 298 297 297 297 297 297 297 296 297 297 298 300 299 300 302 301 299 298 297 297 296 295 295 294 294 294 294 294 293 293 294
296 296 296 296 297 298 302 303 301 297 293 293 295 296 296 295 295 295 295 295 296 296 297 298 297 297 297 296 296 295 294 295 296 296 296 296 295 295 294 292 292 293 294 295 294 294 296 297 296 297 298 299 300 299 299 298 296 296 296 297 298 297 296 296 295 296 298 299 298 297 299 301 301 300 298 297 297 296 295 295 294 294 294 293 293 293 292 293
298 298 297 296 296 298 300 300 299 298 295 295 296 296 295 295 295 295 295 296 296 296 297 297 297 297 296 294 294 293 292 292 294 295 294 294 294 294 293 292 292 293 294 294 293 293 295 296 295 296 297 299 299 298 297 296 295 295 295 296 297 296 296 296 295 296 297 298 296 297 299 299 300 301 299 298 298 297 296 296 294 294 294 293 293 293 292 292
299 301 300 298 296 296 296 295 296 296 295 296 297 296 295 295 295 294 294 295 296 295 295 296 296 296 295 293 293 293 292 290 291 291 291 291 293 294 293 292 292 292 294 293 292 292 294 294 294 295 296 297 297 296 295 295 293 293 294 294 295 296 296 295 295 295 297 297 296 297 298 297 298 298 298 298 297 297 297 296 295 294 294 293 292 292 292 292
299 301 299 299 299 297 295 294 295 295 295 296 297 296 295 296 294 293 293 293 295 295 294 294 295 296 295 294 294 294 292 289 288 289 290 290 292 293 293 292 292 292 293 292 291 291 292 293 293 293 294 294 294 294 294 294 293 293 293 293 294 295 295 295 295 295 296 296 296 297 297 297 297 297 297 297 297 296 296 295 295 294 293 293 292 292 292 292
299 298 294 295 299 299 298 296 294 294 294 295 296 295 295 296 294 294 293 293 293 294 294 295 295 295 296 295 293 292 292 291 290 290 291 291 291 292 292 293 292 292 292 291 290 290 291 292 292 292 293 293 293 293 293 292 292 292 293 293 293 294 294 294 294 294 295 295 295 296 296 296 296 296 296 296 296 296 296 295 294 294 293 292 292 292 291 291
297 296 294 294 296 296 296 296 294 293 294 295 295 295 295 296 295 294 294 293 293 292 293 295 295 295 296 295 293 292 293 293 293 291 291 291 291 292 292 293 293 292 292 291 289 288 290 292 292 291 292 291 291 292 292 291 292 292 292 293 293 293 294 294 294 294 295 295 294 295 295 295 295 295 296 296 296 295 295 294 294 293 293 292 292 291 291 291
297 296 295 294 294 293 293 294 294 294 295 295 296 296 295 296 296 295 294 294 295 293 293 294 295 294 295 295 293 292 293 293 293 293 292 292 292 292 292 293 293 292 292 292 290 288 290 293 292 291 291 292 291 292 293 293 293 292 292 293 293 293 293 294 294 294 295 295 295 295 295 295 295 296 296 296 295 295 294 294 294 293 293 292 292 291 291 291
297 296 295 295 296 294 293 293 294 295 296 296 296 297 296 295 296 295 294 294 295 294 292 293 294 294 294 295 294 293 293 293 293 293 293 292 293 293 293 293 292 292 292 292 291 290 290 292 292 291 292 293 292 293 293 293 293 293 293 293 292 292 293 294 295 295 295 295 295 296 296 295 296 296 296 296 295 295 295 294 294 293 292 292 291 291 291 291
296 296 295 296 298 296 293 293 294 295 298 297 296 296 296 296 295 295 295 294 293 293 293 292 293 294 293 294 293 293 293 293 292 293 292 292 293 292 293 293 292 293 292 292 292 291 291 291 291 291 293 294 293 293 293 292 295 297 297 296 295 294 294 295 296 297 297 296 296 296 296 296 296 296 296 296 295 295 295 295 293 292 292 291 291 291 291 291
Wind_Speed
13 12 11 12 13 12 11 11 12 12 12 12 12 13 13 14 15 16 16 16 17 17 17 17 17 18 15 9 7 11 18 18 21 28 32 29 25 25 26 25 20 17 17 17 19 20 20 19 18 17 16 10 2 2 4 3 4 4 2 4 5 5 4 4 5 5 6 6 10 16 18 10 2 0 3 4 8 9 10 10 10 9 9 10 9 10 14 12
12 12 12 12 13 12 11 11 11 12 11 11 11 11 12 13 14 15 14 15 16 16 17 16 17 18 17 13 6 7 12 14 22 27 28 27 24 25 25 25 22 17 17 17 17 19 19 19 19 19 16 10 4 4 5 3 5 4 3 4 6 4 5 8 4 11 10 10 13 14 21 16 7 6 5 3 7 9 9 11 14 15 11 11 12 14 15 13
12 13 12 12 12 11 11 11 11 11 10 10 10 11 11 12 13 13 13 14 15 15 16 16 17 18 17 16 7 5 6 8 22 27 26 28 25 25 25 24 22 17 17 17 15 15 15 16 17 18 14 9 5 7 7 3 4 7 6 4 5 5 7 12 6 16 14 14 15 14 19 17 14 16 12 8 7 8 8 7 8 11 11 16 17 17 16 12
13 13 12 12 12 11 11 10 10 10 10 10 9 10 10 11 11 12 13 13 14 14 15 16 17 18 20 19 11 5 3 3 18 26 26 29 26 26 24 21 21 18 19 17 14 12 13 13 13 13 11 8 7 7 6 3 3 3 5 4 6 9 9 14 13 16 17 16 15 17 16 13 18 21 14 11 8 5 6 2 6 11 10 13 22 15 14 10
13 13 12 12 12 12 12 11 10 10 10 9 9 9 9 10 10 11 12 12 14 13 14 16 15 16 21 22 17 8 0 1 16 26 28 30 26 25 23 21 21 20 19 15 13 11 12 11 11 10 7 7 7 6 5 6 10 6 6 9 12 14 10 16 21 17 16 16 16 17 14 14 20 20 16 12 8 4 4 8 11 15 17 6 18 10 9 7
12 13 13 13 13 13 13 12 11 11 10 9 9 9 8 9 9 10 12 12 13 13 13 16 14 13 16 22 24 20 10 3 16 26 29 29 25 24 22 22 21 17 17 14 13 13 13 13 11 10 8 7 4 4 7 11 11 6 7 13 16 17 14 17 22 20 17 15 13 14 17 19 18 16 18 16 11 13 16 14 14 12 12 4 8 5 5 5
12 13 14 13 14 14 15 14 13 12 11 10 9 8 8 8 9 10 11 12 13 12 14 16 16 13 13 15 19 26 22 12 20 26 27 26 22 23 22 21 18 15 16 14 15 15 14 14 13 12 8 5 5 7 9 12 12 8 7 11 16 18 17 18 20 20 19 16 14 16 19 19 15 13 17 19 16 18 21 20 16 12 11 7 2 1 2 3
12 13 14 13 14 15 15 15 14 14 12 10 9 8 8 8 9 10 11 12 12 12 14 17 16 14 14 12 12 21 23 20 24 25 26 25 22 22 20 20 19 15 14 13 15 15 13 14 13 12 7 5 8 9 10 10 9 8 7 10 14 16 18 20 20 21 20 17 16 16 16 17 17 17 20 23 23 21 22 25 21 15 12 8 6 4 1 3
11 12 13 13 13 14 15 15 15 15 13 10 8 8 8 9 9 10 11 12 11 11 14 18 18 16 16 13 12 15 19 24 25 24 27 25 20 20 19 20 21 16 13 12 13 13 12 12 12 11 7 8 9 9 10 7 5 8 12 15 16 17 20 21 21 20 20 17 16 15 13 16 20 18 18 21 21 19 20 25 27 23 18 11 9 9 6 5
10 11 11 12 13 13 15 15 16 15 13 10 9 9 9 9 9 10 11 11 10 11 13 17 20 22 21 19 17 12 17 26 24 24 27 25 21 22 21 20 21 17 12 11 12 12 11 10 11 10 7 9 9 10 10 6 8 13 16 17 17 18 20 21 20 20 20 18 17 14 11 16 20 14 11 14 15 15 16 19 24 29 27 21 15 15 14 11
9 10 10 11 12 14 15 16 16 16 13 11 10 10 10 10 10 11 11 10 10 13 15 16 16 20 23 26 22 13 20 26 23 25 26 24 23 22 20 18 19 16 11 9 10 10 9 7 10 10 5 8 13 12 10 11 15 14 14 15 15 18 18 19 19 20 17 12 15 16 12 15 16 13 14 17 21 23 23 20 19 22 26 25 20 16 16 15
9 10 10 10 12 14 15 16 17 15 12 11 11 11 10 10 10 11 13 10 13 15 17 18 17 15 16 23 23 17 24 26 23 27 26 24 23 20 17 16 15 15 11 9 7 8 8 8 10 8 6 10 11 9 10 19 20 15 14 11 12 13 13 16 17 18 14 10 16 15 10 10 9 14 22 25 28 31 32 28 22 21 20 18 15 12 11 13
9 9 9 10 11 13 15 16 16 14 11 11 11 11 11 10 10 13 17 12 14 14 16 16 17 17 14 14 17 20 24 25 25 27 26 25 23 18 14 12 13 14 13 12 8 7 8 7 7 7 8 8 7 8 14 21 18 14 11 7 8 8 7 12 13 13 11 12 16 11 5 5 5 12 22 27 28 28 30 30 25 22 21 18 16 14 11 10
8 9 9 10 11 13 14 15 15 12 11 11 11 11 10 10 9 13 20 16 11 10 13 12 10 13 14 11 13 21 23 24 26 28 28 27 22 18 13 12 12 12 15 15 10 8 9 8 6 7 8 5 8 11 13 14 11 8 7 5 4 4 4 8 7 4 5 8 10 8 5 4 5 11 17 20 23 26 26 27 26 22 21 20 20 20 16 12
8 8 9 10 10 12 13 14 13 11 11 12 12 11 10 10 8 9 17 20 13 8 7 10 9 9 11 10 12 19 22 24 27 29 31 27 21 18 16 14 11 10 13 16 11 9 12 10 5 6 8 6 8 10 7 7 6 4 4 4 3 3 4 6 6 3 3 5 8 7 6 4 6 11 13 16 15 19 23 23 24 24 22 20 21 22 22 19
7 8 8 9 10 11 12 13 12 10 11 12 13 14 13 12 9 7 9 15 18 14 7 6 8 8 7 8 12 19 24 24 27 31 31 25 19 16 15 13 9 9 10 13 13 8 9 10 4 3 6 6 6 6 5 5 5 3 3 5 5 7 6 5 10 11 4 3 7 6 5 5 7 11 14 20 21 12 14 16 19 22 23 22 22 22 22 26
8 8 8 9 9 10 11 11 10 9 10 12 16 20 21 18 15 11 8 9 14 18 18 12 5 6 7 13 16 20 24 23 26 32 32 23 15 14 16 14 12 12 10 8 13 8 5 7 5 3 3 5 7 6 5 4 4 5 5 6 7 9 9 6 10 15 10 7 8 7 6 7 9 14 20 21 21 16 10 9 8 10 13 15 17 19 19 23
8 8 8 9 9 10 10 11 9 7 9 11 15 19 21 23 23 20 15 13 12 12 17 18 9 5 4 16 18 18 21 22 24 30 32 21 13 15 17 16 14 15 11 4 6 7 5 6 6 4 4 6 8 7 5 6 7 8 7 6 7 8 9 8 7 11 13 11 9 8 8 8 8 12 19 23 19 15 13 9 8 10 12 13 14 16 17 16
9 8 9 9 10 10 10 10 8 5 6 7 8 8 10 13 19 25 25 25 21 12 8 14 12 4 3 16 18 16 18 22 21 28 32 22 15 15 16 16 11 10 13 5 2 5 5 6 7 6 6 7 9 7 7 9 9 10 9 7 7 7 8 9 9 10 12 11 8 7 8 8 8 8 14 21 18 14 14 10 9 10 9 13 13 10 12 12
10 9 8 9 10 10 10 10 9 6 3 4 2 0 2 4 6 14 23 28 25 16 11 13 13 7 7 13 17 16 18 21 20 28 33 25 16 13 16 17 6 3 10 7 3 4 4 5 7 7 8 11 12 10 10 10 9 10 9 7 7 8 8 9 9 8 10 8 6 6 7 7 8 7 10 16 17 15 13 9 9 10 6 9 10 5 6 7
10 9 8 9 9 10 10 11 10 9 6 3 0 1 1 2 2 3 11 18 19 16 15 16 14 11 10 12 16 16 16 18 21 30 32 26 18 11 14 18 7 4 9 11 7 3 3 6 8 9 10 11 11 9 7 7 8 8 7 6 7 6 7 9 8 9 10 6 5 6 6 7 8 7 8 10 10 10 10 11 14 13 11 19 25 24 20 20
11 9 9 9 10 10 11 12 12 11 8 5 3 3 5 7 8 7 6 8 12 14 12 12 15 17 15 12 16 14 12 16 22 31 33 28 22 13 14 14 6 5 8 10 7 3 4 6 9 13 12 10 9 7 5 6 6 5 4 5 5 4 7 7 3 5 6 3 5 7 6 8 8 8 7 6 6 8 18 25 29 31 28 31 34 33 33 34
11 10 10 10 9 10 11 12 12 11 10 7 6 7 9 11 11 10 7 4 6 11 11 12 14 21 21 16 17 14 12 14 17 27 32 29 24 16 13 10 6 6 7 8 6 5 6 6 12 16 13 10 8 7 7 6 4 3 4 4 5 5 6 5 1 5 9 6 6 7 5 5 7 8 5 7 15 20 26 32 35 35 31 31 33 33 36 36
11 10 10 9 8 9 10 10 12 12 12 9 8 8 9 10 9 8 5 2 4 7 11 13 13 21 23 18 18 13 9 13 14 22 29 29 26 16 10 8 6 6 7 9 8 4 5 8 15 16 12 10 8 7 9 6 4 4 4 3 4 7 6 6 7 9 10 8 8 7 3 4 7 10 10 14 24 27 28 33 35 34 32 32 35 37 37 36
10 10 10 9 8 8 8 10 12 13 12 10 9 7 6 6 7 6 4 1 2 5 9 11 11 18 22 20 22 12 4 9 14 19 25 26 23 12 7 9 6 5 7 9 7 2 5 10 14 13 11 10 7 5 8 6 6 5 2 1 4 7 7 9 10 9 6 4 4 3 1 3 7 13 15 14 17 21 24 29 29 31 33 33 34 35 35 35
10 9 9 9 9 8 7 10 12 10 10 11 10 6 3 2 7 6 2 1 1 5 7 9 8 15 20 20 24 11 3 8 12 16 24 24 20 9 6 11 5 5 7 4 2 1 4 10 10 9 10 10 8 5 6 6 6 5 1 2 7 8 8 9 9 6 3 3 5 3 3 2 5 12 14 12 15 18 20 23 25 29 31 31 32 33 34 35
9 9 9 9 8 8 8 9 11 9 8 9 9 6 3 2 7 7 1 2 3 5 6 9 6 12 18 16 22 9 3 10 11 15 24 22 21 9 3 9 5 5 7 2 2 1 2 9 9 8 8 7 7 6 7 7 4 5 5 7 10 11 10 9 8 5 2 5 4 2 4 3 6 10 11 11 14 18 19 18 21 27 29 29 31 32 34 35
9 8 8 8 8 9 9 9 10 10 9 8 8 7 4 3 8 5 2 2 3 5 4 7 6 13 18 11 17 12 2 10 10 13 21 18 22 12 1 8 5 8 10 3 3 3 3 7 9 8 8 6 7 9 10 7 3 7 10 10 10 10 9 7 6 5 3 3 3 4 4 4 6 7 8 11 14 16 18 16 18 24 27 28 30 31 32 33
8 8 7 8 7 7 7 9 10 10 10 9 8 7 4 5 7 3 3 1 2 4 4 8 7 14 20 9 11 15 8 10 9 14 16 14 23 16 2 6 11 10 9 2 1 6 5 3 5 5 5 6 8 13 13 4 4 10 13 12 11 7 5 4 3 4 3 2 6 5 2 3 5 6 8 10 13 13 12 12 15 22 26 26 28 30 30 31
8 8 8 7 7 7 7 9 11 10 9 9 8 6 4 5 3 1 3 1 0 3 5 8 7 11 17 8 6 14 11 10 13 16 16 14 26 27 5 3 15 8 2 1 2 10 8 2 4 3 1 8 11 13 14 5 7 13 12 11 8 2 3 1 1 2 1 4 8 9 6 3 4 6 8 9 11 11 9 9 13 20 24 24 26 28 28 28
7 7 7 8 8 8 8 8 10 9 9 9 7 5 3 2 1 2 2 1 0 5 4 4 8 10 12 7 4 11 9 9 16 16 14 12 20 30 15 5 13 7 2 6 5 12 10 4 7 4 0 11 12 8 13 9 6 8 7 7 6 2 2 1 1 2 3 3 3 7 11 9 6 4 6 8 10 10 9 9 11 16 20 22 24 26 26 27
7 7 7 8 7 8 8 7 8 9 9 10 6 4 2 1 3 1 0 2 1 3 2 2 7 9 8 6 5 9 6 6 14 11 8 8 7 14 13 6 9 6 4 7 5 10 8 1 9 8 4 14 12 6 10 8 5 8 7 7 7 4 2 3 3 3 4 3 2 3 7 8 7 4 6 8 9 10 10 12 13 15 17 20 23 23 24 25
6 6 6 7 7 8 8 7 8 9 9 9 5 3 2 1 3 1 2 3 1 1 2 3 6 6 6 5 5 7 5 1 10 10 6 7 5 6 10 9 9 4 1 5 4 8 6 1 8 8 6 15 13 6 7 7 8 9 8 7 6 4 5 5 4 2 2 2 2 3 4 4 4 3 6 7 8 11 14 16 17 17 18 20 21 21 22 23
6 7 6 6 7 8 9 8 8 9 9 8 3 2 4 3 1 0 1 1 1 2 3 3 5 4 2 3 2 5 3 2 7 9 6 6 5 4 6 9 11 6 2 3 2 4 4 3 6 7 7 12 10 6 6 7 8 7 5 4 4 3 3 3 3 3 2 1 1 3 3 2 2 1 4 7 10 14 15 16 17 18 18 18 19 21 21 22
6 6 7 7 8 9 10 9 9 10 9 6 3 2 5 3 1 1 1 1 0 2 2 1 3 3 1 1 0 2 2 2 6 6 4 4 4 4 4 6 10 8 4 2 2 3 2 4 4 10 12 10 8 8 10 8 5 5 5 3 3 2 0 2 3 3 2 0 2 4 3 2 1 1 2 3 8 12 13 14 15 16 17 17 19 21 21 21
5 6 9 10 10 10 10 9 9 9 8 5 3 3 3 1 1 2 2 1 1 2 4 2 2 3 2 1 0 3 2 1 5 4 2 3 3 4 3 3 8 9 6 3 3 2 3 5 7 12 12 7 10 12 10 8 5 5 4 4 6 3 3 1 4 4 1 2 2 1 3 1 1 1 3 2 2 6 8 11 12 14 15 17 19 20 20 20
5 7 9 10 10 10 9 8 7 7 8 5 3 3 1 0 1 2 3 2 2 3 4 2 2 2 2 2 0 4 4 2 3 4 2 1 1 3 3 4 8 10 8 4 1 1 2 6 8 6 6 9 17 15 5 12 11 4 3 6 7 1 3 0 2 3 4 3 1 2 5 3 2 1 2 1 2 3 2 5 8 10 13 14 16 17 17 17
5 6 8 10 11 9 8 8 6 6 8 6 5 3 1 0 2 2 3 2 1 3 2 1 2 1 1 2 1 4 5 3 3 4 3 1 1 3 2 2 7 11 12 8 1 1 2 5 6 2 5 11 16 10 3 10 14 5 3 7 4 2 2 3 1 2 3 3 2 1 3 3 2 2 3 3 3 3 2 2 4 7 10 11 11 13 14 15
4 5 7 10 10 8 8 7 5 5 5 4 4 2 1 0 1 2 2 2 2 3 1 1 2 1 1 2 3 3 3 3 3 2 2 1 1 3 4 2 4 11 17 11 1 2 3 2 3 4 8 10 6 5 2 6 10 6 5 6 2 0 1 1 1 1 1 2 3 2 1 0 1 3 5 5 4 3 3 2 3 6 10 10 10 11 11 12
4 4 5 9 8 6 7 7 7 7 4 3 3 2 1 1 2 2 1 1 1 2 1 1 1 1 1 2 3 2 3 3 3 1 0 0 1 3 4 4 4 9 17 12 2 2 3 1 3 5 9 7 1 3 3 3 5 6 5 6 5 3 1 1 1 1 2 1 2 3 3 1 2 3 5 6 5 3 3 3 4 7 8 9 10 10 10 10
5 3 4 9 6 3 5 8 10 8 3 2 3 2 1 2 3 3 1 1 2 2 2 2 1 1 0 2 2 2 2 3 3 1 1 1 1 1 2 5 6 7 11 8 1 3 2 1 3 6 6 4 1 1 2 2 2 3 3 4 4 4 3 2 2 2 2 0 1 0 3 3 0 2 4 5 5 5 5 4 5 5 6 7 8 9 9 9
6 2 5 7 4 4 6 7 7 6 2 2 3 3 2 2 2 2 2 1 1 1 2 3 2 2 1 1 3 3 2 3 3 2 2 0 1 1 2 7 10 7 5 3 1 4 3 2 3 5 6 2 2 2 2 3 1 2 1 2 3 3 2 2 2 3 3 3 2 1 2 4 1 4 5 6 7 7 6 5 4 4 4 5 6 7 9 9
5 3 4 4 3 5 7 5 4 5 3 2 3 4 3 2 1 1 1 0 0 0 1 1 1 1 0 0 2 3 3 2 2 2 3 2 2 4 4 7 10 7 4 2 2 5 4 1 2 4 5 2 3 3 4 3 2 2 1 2 2 1 2 1 2 2 2 4 3 1 2 4 3 5 8 10 11 11 9 5 4 3 3 5 6 7 7 9
5 5 6 6 2 1 4 3 2 3 2 2 3 3 2 2 0 0 0 1 1 0 1 1 1 0 1 2 2 1 3 1 1 2 3 2 2 4 5 7 7 5 3 2 2 6 3 0 1 4 3 3 4 4 4 3 3 2 2 1 2 0 0 1 2 0 1 4 1 2 3 3 3 5 8 11 11 11 12 7 4 3 2 4 6 8 8 9
3 3 5 8 6 3 5 5 4 4 3 2 2 2 1 2 1 1 1 1 1 1 1 1 2 1 2 4 3 3 3 1 1 3 3 2 1 4 4 6 5 4 4 2 4 6 2 1 1 1 1 2 3 3 2 4 4 2 2 2 2 3 1 1 1 1 3 3 2 3 4 3 1 4 5 7 3 3 7 6 4 3 2 3 5 8 9 11
3 2 2 6 8 9 10 8 7 7 4 3 2 2 2 1 1 2 2 1 1 1 1 1 1 1 2 3 2 1 2 2 1 1 2 3 1 1 4 5 3 2 2 2 6 5 1 2 2 4 4 4 6 6 5 6 6 6 7 6 5 4 2 2 1 3 3 3 4 6 7 7 7 7 7 5 6 6 3 4 3 2 2 4 5 7 10 11
2 2 2 2 5 8 10 8 7 7 5 4 3 3 3 3 2 2 2 1 1 2 1 2 2 2 2 3 2 1 1 3 1 1 2 4 3 4 9 5 2 1 1 2 7 4 0 2 4 7 8 8 8 11 9 7 8 10 11 10 7 5 5 4 5 6 2 3 5 7 6 8 9 7 6 6 8 6 2 2 2 3 4 5 6 8 10 12
2 1 1 1 1 2 3 4 5 6 6 3 3 4 4 4 3 2 2 2 2 3 2 2 4 4 4 4 2 1 1 1 2 3 3 3 3 4 5 1 6 3 2 2 5 3 1 3 5 5 7 8 8 12 12 9 9 10 11 12 11 8 7 8 9 9 5 5 8 7 7 10 11 7 8 10 8 4 1 2 5 6 6 7 7 9 13 15
2 1 1 2 1 2 2 3 5 6 5 3 2 4 5 5 5 3 4 3 1 3 5 2 3 6 5 5 4 2 3 2 3 3 3 2 2 2 2 1 4 5 4 2 3 2 1 2 3 2 6 9 9 11 13 11 10 11 12 13 12 11 10 10 10 10 10 11 13 12 13 15 13 10 12 12 7 4 4 6 8 8 8 8 9 12 14 16
2 1 1 2 3 3 3 3 4 3 3 2 2 4 5 5 6 4 5 6 3 2 6 4 3 5 6 5 5 4 5 4 3 3 3 3 2 2 2 0 2 4 4 2 2 1 1 1 2 2 4 8 8 8 9 8 9 12 14 13 13 12 11 10 10 10 9 11 12 12 14 15 13 11 10 8 5 5 8 9 9 9 9 9 11 14 16 18
4 3 3 2 2 3 3 2 2 2 1 3 3 4 5 6 8 6 4 8 8 5 7 7 5 4 5 5 6 7 7 5 5 5 4 4 5 3 2 1 1 1 2 2 1 2 2 2 3 3 3 6 3 1 4 6 9 13 16 16 15 12 9 8 8 8 9 9 9 9 10 10 8 6 6 6 8 11 12 10 9 10 9 11 14 17 19 20
5 5 6 4 1 4 5 2 2 2 2 4 7 6 5 6 10 9 4 7 11 9 9 10 7 3 4 5 6 7 7 6 6 7 8 9 10 9 10 10 8 5 2 1 1 2 2 1 3 2 3 4 1 3 5 6 7 9 10 10 10 10 8 7 6 7 9 9 7 7 8 7 6 4 5 6 9 12 12 8 7 9 11 14 17 19 22 24
Wind_Direction
31 37 46 48 46 46 47 51 50 45 43 43 41 37 36 36 38 36 34 33 34 39 42 43 39 31 27 35 79 76 64 52 23 19 22 18 8 6 9 5 7 9 11 21 13 5 7 8 12 12 2 357 342 350 340 279 241 261 272 226 248 240 230 258 262 325 12 13 346 347 347 329 313 84 221 245 245 250 266 264 257 244 230 227 216 229 246 246
33 41 49 54 53 48 46 49 49 45 39 39 40 36 34 34 35 34 32 34 37 43 46 44 39 30 20 25 81 105 68 48 23 20 16 12 9 8 11 10 13 11 16 24 8 354 355 359 359 355 355 354 345 13 354 288 207 220 265 237 247 248 272 281 325 29 26 359 339 344 348 338 346 345 319 281 235 226 248 254 250 245 218 198 214 227 237 243
37 41 48 54 50 45 45 46 47 44 39 37 37 34 33 32 31 32 32 35 41 48 47 44 43 37 28 30 60 122 95 45 18 12 8 10 9 9 11 12 13 15 27 26 3 349 344 344 345 345 342 337 360 7 337 301 206 212 236 248 254 267 281 281 356 44 22 354 339 341 342 331 352 350 335 327 279 228 229 245 243 247 227 200 207 220 226 237
38 41 44 48 44 42 41 40 40 40 38 32 31 32 30 28 29 31 32 38 45 50 46 43 47 49 46 41 48 84 140 86 16 3 4 10 8 9 9 12 14 19 31 22 360 350 341 340 335 334 328 334 7 344 309 296 319 243 235 257 281 298 298 294 331 25 20 360 334 330 331 326 346 339 326 330 314 239 222 334 13 344 331 202 191 203 214 225
39 43 42 42 42 40 37 36 36 34 33 25 22 25 25 26 28 32 36 44 48 50 46 40 46 58 56 50 52 52 188 115 6 360 7 9 5 6 7 14 15 20 29 16 1 358 352 351 337 337 336 335 346 322 325 349 340 329 290 295 301 308 310 308 322 351 6 351 328 324 322 328 339 325 317 321 306 284 289 3 0 349 6 143 173 184 200 212
46 46 42 43 41 37 34 32 30 26 23 17 15 17 19 24 30 38 41 50 49 48 47 40 46 61 57 52 51 52 66 50 358 4 9 5 3 7 11 14 8 16 28 15 9 13 5 2 360 3 348 320 333 335 345 346 338 326 301 303 304 306 304 307 315 326 340 338 323 317 312 318 325 313 310 303 282 290 299 332 348 337 1 60 164 176 178 190
49 46 44 44 39 34 30 27 23 18 14 11 12 14 20 28 36 45 50 55 49 48 51 44 54 63 56 52 45 46 56 37 8 11 7 4 8 9 14 12 5 19 24 11 11 15 12 12 14 2 334 310 351 348 333 330 322 300 286 294 297 300 299 305 311 319 331 328 315 311 310 311 310 306 306 299 290 292 292 303 327 333 333 349 19 189 189 207
47 45 46 43 36 30 25 21 18 14 10 8 10 15 25 38 45 51 60 58 47 53 57 51 61 65 60 60 46 41 38 20 15 11 5 11 13 10 14 7 7 23 20 11 11 9 11 16 14 0 346 339 339 332 326 323 306 280 286 303 306 308 307 314 318 319 323 317 313 310 303 300 301 304 296 289 288 291 293 293 299 310 313 318 329 338 322 243
47 46 46 42 33 27 21 17 15 12 10 11 18 27 37 50 53 58 66 54 47 65 64 57 61 64 65 60 52 46 26 15 15 4 4 14 12 13 17 6 4 16 20 15 11 8 13 14 7 1 341 318 318 320 322 316 292 295 314 319 316 313 312 315 312 308 307 304 306 302 295 293 299 307 294 283 288 286 285 285 284 286 290 290 292 302 307 287
44 43 43 39 30 23 18 15 15 13 14 21 33 43 51 58 58 65 63 45 55 78 67 60 57 57 62 57 54 52 22 19 15 2 4 10 12 17 18 6 357 4 19 19 15 11 12 8 350 344 322 314 326 319 309 311 322 315 310 310 306 303 302 300 296 292 291 289 283 276 273 275 280 288 276 277 290 291 286 280 273 271 273 280 282 281 282 282
37 37 35 31 25 20 15 14 16 16 22 34 46 54 58 60 63 67 49 41 77 86 69 64 57 52 53 50 53 45 21 21 14 5 8 11 15 17 11 0 352 358 15 21 17 3 357 359 347 340 327 338 340 317 306 335 339 319 303 303 294 290 289 284 282 279 278 276 267 260 259 257 257 257 259 271 272 273 285 290 283 271 268 276 280 276 272 264
30 32 26 24 23 17 14 15 18 20 30 43 52 59 61 62 70 62 40 54 98 89 72 67 59 57 52 45 45 33 23 23 14 8 12 15 16 16 4 355 356 358 7 20 12 350 344 355 354 343 330 333 332 320 323 330 323 302 293 292 283 285 281 273 266 260 261 262 260 258 263 255 233 240 252 259 257 255 263 272 283 283 277 280 281 280 272 255
24 26 20 20 21 15 14 16 20 27 40 53 57 60 65 67 74 60 44 73 111 87 70 70 61 57 57 47 35 26 24 24 17 12 16 17 14 16 2 355 9 3 11 26 11 355 357 1 356 334 325 316 310 321 321 311 297 281 277 266 278 291 278 273 260 244 248 254 254 250 259 264 241 249 253 253 249 245 247 250 256 266 271 275 276 280 278 261
18 20 16 18 18 14 14 17 23 35 51 59 59 60 64 67 77 65 54 70 112 89 64 69 65 53 54 49 28 22 22 22 20 16 18 15 10 16 10 10 22 7 18 30 16 12 15 16 12 335 320 290 286 306 313 304 288 276 272 258 269 275 279 293 286 245 247 267 270 267 265 275 289 274 270 270 253 238 240 242 241 246 252 259 269 276 278 274
14 16 15 15 14 12 15 19 28 45 61 61 59 61 63 65 76 76 62 63 77 89 81 74 64 57 54 42 22 18 19 20 20 17 14 9 6 14 17 26 30 1 14 26 18 20 17 14 18 337 325 305 290 294 314 315 293 278 283 294 286 288 305 300 307 304 245 295 308 289 276 282 277 265 279 309 292 239 233 241 239 240 244 250 259 265 270 271
17 16 13 13 11 13 18 23 33 55 69 66 66 67 64 63 64 77 76 63 62 64 72 69 55 70 64 27 16 16 16 16 17 17 12 5 4 12 18 33 34 347 344 10 17 18 10 360 340 320 323 322 314 309 329 319 303 327 344 339 327 326 330 321 333 334 333 342 316 295 304 310 291 300 317 324 322 291 245 243 237 236 241 249 253 255 261 263
23 22 17 14 14 18 24 28 39 66 83 81 81 77 69 65 61 65 74 68 67 58 52 46 45 107 68 18 10 6 6 11 14 12 8 5 8 10 12 17 18 354 322 345 19 11 336 343 340 340 345 348 347 341 333 322 334 343 344 338 327 332 330 324 332 330 343 354 319 307 311 304 296 316 327 315 311 317 304 283 271 260 257 258 259 254 256 258
29 26 23 22 22 28 34 34 41 76 105 102 92 81 71 66 62 63 67 69 69 56 48 41 38 128 51 360 356 352 356 10 14 6 3 7 19 16 5 350 347 355 342 324 27 9 332 359 18 11 7 4 354 347 328 318 326 322 322 324 317 324 313 307 312 314 330 331 311 315 304 300 307 312 317 309 303 304 297 294 298 297 287 278 271 257 256 261
31 31 31 31 32 38 43 40 42 75 122 128 107 83 68 61 58 57 57 60 62 58 44 30 32 91 316 337 348 351 360 15 12 1 3 11 24 24 4 341 322 349 4 351 33 17 344 8 24 11 4 359 347 335 311 307 314 307 303 300 296 301 293 293 294 299 318 311 290 301 292 291 310 307 298 300 305 299 281 268 259 259 273 287 283 261 255 269
40 43 42 39 40 45 46 45 49 59 98 150 164 128 49 37 48 49 49 56 64 71 70 47 42 39 337 337 351 356 6 21 13 1 6 12 20 25 11 5 358 34 19 347 333 12 350 13 22 8 0 346 335 327 313 307 307 299 295 292 287 288 288 288 294 323 343 323 281 270 277 279 286 286 283 295 309 307 291 284 284 272 276 316 330 334 295 310
48 49 47 48 51 52 46 44 51 53 58 92 181 263 94 63 106 71 52 59 63 67 62 50 45 25 357 350 358 0 1 9 8 5 9 14 23 29 12 14 25 49 14 339 331 359 15 31 14 1 359 341 330 328 324 315 307 302 298 293 290 282 287 300 317 352 1 341 302 287 282 276 272 270 272 284 291 307 338 4 11 13 23 30 34 36 34 35
47 48 50 54 59 56 48 44 45 49 53 63 71 95 118 119 118 114 100 78 60 57 51 43 37 22 14 10 7 13 5 355 360 5 8 14 27 27 359 7 24 20 6 347 347 17 33 29 2 353 353 339 332 338 336 313 293 291 294 281 290 304 302 316 354 344 336 340 321 314 293 274 278 280 267 271 296 358 30 40 44 45 44 42 41 39 39 40
45 47 52 55 62 58 50 49 47 53 58 65 87 102 116 122 121 115 109 100 66 53 38 35 30 16 17 16 7 16 18 3 355 358 3 8 15 11 352 1 23 12 6 359 358 22 25 2 350 348 343 341 346 9 9 329 293 286 309 291 292 329 327 319 337 304 307 301 283 279 280 286 299 311 317 22 36 41 44 47 48 48 47 46 45 43 41 39
43 47 51 49 57 54 49 50 47 56 59 63 86 102 128 133 130 120 88 89 97 45 24 31 27 14 14 10 6 11 7 5 359 356 1 3 1 0 358 360 8 13 9 354 344 31 46 347 346 346 337 350 358 19 22 351 336 328 323 330 310 327 327 305 309 313 305 286 256 237 249 351 351 4 18 34 46 48 44 45 45 43 45 46 45 45 43 41
38 42 46 44 50 48 49 45 40 51 54 56 73 84 127 155 163 137 71 106 99 13 6 21 19 11 8 3 5 1 318 10 12 358 0 3 357 348 350 356 1 8 359 351 337 33 38 347 350 352 334 352 3 16 29 5 331 328 340 44 314 312 306 300 311 318 316 292 265 229 136 23 1 22 29 22 37 43 40 46 45 39 40 41 42 42 42 42
33 35 39 42 45 40 49 43 34 43 44 44 50 51 84 160 181 162 69 172 51 355 350 2 2 4 3 360 1 354 225 12 12 3 3 5 2 346 339 355 1 2 347 343 334 240 360 346 355 358 333 348 5 357 13 5 329 323 351 301 304 304 294 299 309 312 321 304 312 360 68 70 21 32 34 21 31 36 32 40 42 40 41 38 40 41 40 41
30 30 33 39 42 39 55 51 35 40 39 35 35 34 36 76 169 172 78 122 27 350 343 354 355 2 0 359 6 18 188 337 345 9 6 1 5 6 354 360 353 348 340 289 14 309 308 350 358 356 342 351 4 342 332 345 334 296 300 304 306 304 295 299 306 303 302 290 293 106 116 84 40 34 32 26 36 38 30 31 33 37 40 39 41 41 40 41
29 31 33 38 40 40 55 53 36 37 36 29 30 34 41 99 154 162 54 119 353 340 341 351 347 1 3 7 21 38 47 337 339 1 2 1 7 4 340 17 352 313 327 321 15 343 305 1 358 347 354 355 344 323 311 323 311 273 291 303 296 291 292 297 303 299 290 307 7 97 127 76 41 20 25 32 39 40 33 28 27 31 36 39 41 41 41 41
25 32 37 38 39 37 49 49 35 29 26 23 22 29 68 121 150 148 37 167 315 349 348 352 345 352 359 12 33 28 23 18 5 349 359 14 16 15 205 11 357 313 313 290 267 340 344 19 358 341 1 351 326 314 307 294 242 275 292 295 278 256 257 273 295 298 288 14 27 35 126 104 58 16 16 33 36 38 36 32 29 30 34 38 40 41 41 40
24 29 34 35 37 34 37 34 25 20 18 16 10 21 90 129 151 85 28 210 213 4 336 359 357 340 351 1 25 12 8 22 6 355 10 20 22 29 54 338 357 338 297 27 320 339 348 80 31 8 28 333 317 312 319 302 248 279 297 303 290 212 165 235 274 286 341 47 33 37 53 84 73 29 21 33 34 31 33 37 34 33 34 37 41 42 40 39
27 28 29 28 32 34 35 25 9 8 13 8 1 15 83 133 56 77 64 220 181 3 335 360 358 342 352 0 1 357 353 7 4 3 14 11 20 27 32 4 355 355 17 12 357 344 348 77 29 12 79 338 326 321 337 326 276 294 316 331 345 56 121 147 301 328 54 67 48 59 60 61 72 46 20 30 34 31 32 35 37 38 37 37 40 43 42 39
32 31 25 22 26 30 33 22 4 4 5 2 8 29 61 75 26 66 294 308 302 6 358 338 347 342 340 343 356 349 331 355 4 2 11 12 28 32 40 39 354 359 17 355 348 344 334 100 21 8 3 356 350 339 346 339 327 342 347 354 12 25 21 33 21 23 59 49 15 70 64 62 75 55 21 23 24 28 35 37 39 41 41 42 42 42 42 41
37 34 24 18 22 23 22 15 7 7 360 1 24 50 44 68 43 19 294 344 260 281 344 316 326 332 327 339 358 343 322 5 6 359 5 22 45 54 58 52 16 16 343 326 329 344 332 307 15 13 349 357 4 1 354 344 336 348 357 3 16 21 10 16 14 26 71 57 40 65 65 80 103 57 18 12 10 20 31 38 42 42 42 43 42 42 42 42
39 32 23 20 24 22 15 12 11 4 358 5 22 35 45 76 86 34 267 353 219 271 326 311 304 316 352 17 1 345 359 64 16 4 5 21 35 37 43 39 27 20 296 313 345 350 342 306 360 18 338 343 4 6 338 318 317 341 354 9 41 48 16 354 348 356 354 292 311 20 35 60 130 55 359 3 10 17 28 36 40 41 42 42 39 40 39 38
40 31 24 25 26 19 11 12 9 2 2 11 8 24 63 100 195 33 17 272 74 310 306 307 310 316 80 69 359 35 42 20 5 8 27 34 28 23 18 16 21 16 347 346 338 337 330 268 325 351 329 333 4 347 333 328 313 328 348 14 33 37 112 292 273 250 265 346 17 23 41 20 16 266 288 346 18 21 25 32 36 37 39 41 37 35 34 33
38 31 27 24 17 9 8 9 5 8 12 16 29 44 62 124 219 49 21 318 34 341 302 310 352 13 25 319 21 48 51 348 341 349 66 73 45 41 45 25 21 23 24 11 319 345 348 286 309 331 325 358 8 330 334 11 343 307 4 5 310 273 155 239 281 257 262 83 84 107 121 88 324 216 244 249 55 37 25 24 30 33 34 38 37 33 30 29
38 36 30 21 11 3 5 8 8 26 33 30 57 70 69 79 355 21 16 7 360 316 306 327 10 25 351 298 17 9 352 340 339 347 36 72 39 41 46 47 37 26 18 10 325 70 20 293 292 321 334 356 351 333 359 35 12 330 14 347 313 317 117 250 305 337 2 43 110 162 146 173 216 175 202 200 89 83 58 31 31 32 33 36 34 30 27 25
35 42 32 15 8 4 10 18 21 37 43 52 83 92 127 21 4 14 26 20 310 301 319 3 348 5 266 281 326 352 347 357 350 356 26 17 20 51 53 27 27 12 359 358 336 344 3 296 282 6 5 335 344 354 30 20 11 6 355 348 348 61 5 324 357 358 346 358 334 185 151 182 209 160 157 146 93 90 108 79 47 37 36 32 25 24 23 20
30 38 25 6 1 10 20 30 37 33 36 67 99 105 130 64 46 74 33 339 301 309 326 101 331 331 19 314 317 346 11 19 345 346 50 49 19 76 86 17 360 359 350 346 11 331 332 294 275 1 355 322 333 28 11 347 0 7 6 1 10 111 296 313 341 327 12 348 330 330 334 289 155 152 149 135 107 83 76 91 75 48 42 32 20 15 14 14
48 45 11 356 3 28 36 46 55 50 46 52 66 98 139 164 161 136 54 346 357 337 338 112 252 261 347 318 305 339 360 349 329 325 22 74 64 78 74 37 5 354 340 331 17 24 328 274 277 320 342 333 344 45 24 360 345 353 21 15 359 349 334 138 342 14 87 345 325 337 315 314 108 138 129 117 114 100 72 75 73 54 43 32 21 13 8 10
67 62 348 351 5 41 47 52 50 48 77 83 58 83 157 165 153 141 129 79 34 14 23 25 354 131 71 305 313 358 343 322 307 307 343 73 83 49 69 43 16 351 338 330 37 55 352 279 290 304 325 346 62 77 67 89 336 336 22 24 10 355 346 22 354 349 42 230 207 310 283 275 112 110 114 121 134 122 96 79 72 58 42 27 16 8 3 1
69 55 345 360 36 74 63 61 42 30 70 92 64 84 130 145 131 127 135 108 35 29 38 26 28 76 122 289 357 11 341 316 303 322 360 41 28 11 75 46 15 345 331 328 23 43 22 266 275 286 280 294 75 89 80 80 33 318 21 59 35 6 18 47 316 310 348 293 258 170 239 267 239 124 125 141 149 137 119 97 90 76 44 20 360 358 358 352
70 57 21 33 84 78 67 78 59 39 56 73 77 94 112 114 86 75 141 197 304 43 35 80 81 44 193 216 30 14 338 318 287 314 344 345 27 74 88 43 13 346 333 333 340 1 357 259 264 288 278 299 42 27 359 16 44 6 2 85 81 111 135 134 261 319 334 274 279 66 242 263 219 161 151 160 160 149 144 126 107 96 42 17 359 350 346 343
69 55 41 36 31 62 70 83 89 83 83 61 65 82 106 124 148 29 97 237 216 220 263 176 116 253 122 89 83 37 4 9 216 330 354 354 23 105 88 37 18 358 4 58 351 337 332 161 332 317 319 347 354 348 333 339 21 360 306 150 122 128 108 258 258 25 277 246 177 143 243 255 208 181 172 177 171 145 137 130 108 94 43 12 1 348 335 332
38 38 41 31 26 76 96 94 111 119 114 89 81 98 128 121 199 230 193 242 224 237 289 62 85 131 112 73 52 28 20 71 155 356 2 335 313 123 79 28 26 15 17 51 357 335 299 263 334 350 16 335 305 306 307 320 332 320 281 276 320 314 300 185 262 281 249 244 180 185 240 282 233 213 214 214 229 75 107 109 85 68 20 351 349 344 333 328
348 14 39 24 34 67 83 93 112 118 129 156 131 133 189 171 185 205 190 237 226 203 296 8 84 114 123 107 73 13 349 332 316 355 335 298 284 76 358 351 41 40 10 30 357 339 255 276 256 212 225 242 264 284 307 328 315 292 291 290 282 281 247 178 230 241 238 283 268 230 242 272 271 265 270 278 319 343 43 83 53 10 336 322 324 331 330 329
347 11 23 13 41 67 74 79 94 111 137 166 139 134 179 168 124 173 199 226 219 191 268 277 209 192 171 160 157 204 271 327 328 211 257 257 246 306 313 312 99 120 232 29 2 352 220 280 250 227 242 247 263 284 294 303 288 279 288 285 268 258 243 222 225 231 256 331 274 243 240 262 267 269 285 303 314 318 349 56 351 316 302 291 299 319 324 327
9 27 62 56 28 60 72 70 87 104 117 127 128 148 171 172 168 187 187 191 211 187 193 269 231 224 215 183 167 159 180 284 276 231 243 246 248 310 311 180 133 151 195 72 26 33 102 262 253 243 261 259 265 279 281 280 271 267 273 274 271 260 237 231 238 238 236 243 249 267 289 279 274 279 290 295 293 285 286 312 303 299 289 279 290 309 316 320
52 58 81 89 61 66 91 110 116 113 114 111 132 165 173 182 191 181 143 144 226 213 199 231 233 221 221 200 188 184 176 205 277 261 229 242 266 281 275 160 146 172 182 125 68 59 157 245 266 290 286 276 262 261 265 267 266 264 262 260 263 259 241 237 245 239 233 242 251 269 278 272 268 270 275 276 266 251 273 286 287 281 274 274 288 301 307 312
130 82 114 100 87 92 97 119 137 138 147 160 196 193 185 189 189 167 149 163 172 185 192 216 243 218 218 206 196 214 211 211 285 279 211 209 255 241 236 291 135 180 201 172 106 92 157 292 342 356 296 282 263 246 249 258 269 274 271 262 260 261 254 244 244 242 241 248 255 260 265 269 269 265 262 256 245 259 264 262 264 268 270 278 287 294 299 302
198 201 176 137 110 147 146 146 190 233 203 184 196 180 181 203 194 172 175 197 196 175 178 202 230 217 212 212 212 234 248 256 286 294 268 257 267 263 252 275 75 172 221 185 149 160 172 290 332 8 308 282 277 282 280 286 288 280 274 266 254 248 249 237 221 216 220 233 248 250 252 263 264 243 230 229 238 247 248 247 256 265 272 281 286 291 293 294
207 202 182 169 151 175 170 166 209 254 259 203 195 181 184 206 187 170 176 211 207 202 192 199 214 203 198 220 224 235 254 266 271 279 278 270 268 268 262 260 267 268 251 223 246 193 158 293 322 346 293 275 330 3 323 316 309 283 267 258 232 213 220 233 222 210 210 216 230 240 243 257 263 243 241 253 254 257 260 260 267 276 280 282 284 289 291 290